Location: Sevilla
(37.3933°N, 5.9839°W)
Time: 05:08:28
(UTC+02:00)

Vanguard 3 - Pass Details

Date: 04 July 2024
Orbit: 508 x 3231 km, 33.4° (Epoch: 15 July)

Event Time Altitude Azimuth Distance (km) Brightness Sun altitude
Rises 08:56:39 0° 256° (WSW) 7,155 11.3 19.0°
Reaches altitude 10° 09:01:43 10° 255° (WSW) 6,013 11.0 20.0°
Maximum altitude 09:19:41 74° 175° (S) 2,405 9.9 23.4°
Drops below altitude 10° 09:30:28 10° 93° (E) 3,825 12.3 25.5°
Sets 09:32:58 0° 91° (E) 4,518 12.2 26.0°
